Location: Angola by the Bay
(38.6709°N, 75.1746°W)
Time: 06:46:38
(UTC+00:00)

DIWATA 2B (PO-101) - Pass Details

Date: 13 December 2024
Orbit: 569 x 582 km, 98.1° (Epoch: 18 January)

Event Time Altitude Azimuth Distance (km) Brightness Sun altitude
Rises 22:50:19 0° 357° (N) 2,784 ? -13.3°
Reaches altitude 10° 22:52:49 10° 343° (NNW) 1,880 ? -13.8°
Maximum altitude 22:55:59 22° 292° (WNW) 1,264 ? -14.4°
Drops below altitude 10° 22:59:07 10° 240° (WSW) 1,866 ? -15.0°
Sets 23:01:36 0° 225° (SW) 2,758 ? -15.4°
